Regional Weather Roundup
Issued by NWS

Home | Current Version | Previous Version | Text Only | Print | Product List | Glossary Off
Versions: 1 2 3 4 5 6 7 8 9 10 11 12 13 14 15 16 17 18 19 20 21 22 23 24 25 26 27 28 29 30 31 32 33 34 35 36 37 38 39 40 41 42 43 44 45 46 47 48 49 50

000
ASUS45 KTFX 040004
RWRMT
MONTANA REGIONAL WEATHER ROUNDUP
NATIONAL WEATHER SERVICE GREAT FALLS MT
600 PM MDT THU SEP 03 2015

NOTE: "FAIR" INDICATES FEW OR NO CLOUDS BELOW 12000 FEET WITH NO
SIGNIFICANT WEATHER AND/OR OBSTRUCTIONS TO VISIBILITY.

MTZ001>007-043-040100-
WEST OF THE DIVIDE

CITY           SKY/WX    TMP DP  RH WIND       PRES   REMARKS
KALISPELL      RAIN      52  49  89 N3        29.95R FOG
MISSOULA       CLOUDY    53  46  77 E6        29.98S
BUTTE          CLOUDY    56  40  55 CALM      29.92R
MULLAN PASS    CLOUDY    44  36  73 CALM      29.99S
DEER LODGE       N/A     55  37  50 NW25      29.96R
EUREKA           N/A     63  39  42 W3        29.91S
HAMILTON         N/A     52  46  82 NW2       29.98S
LIBBY            N/A     63  34  34 W3        29.91R
$$

MTZ008-052>055-040100-
SOUTHWEST MONTANA

CITY           SKY/WX    TMP DP  RH WIND       PRES   REMARKS
BOZEMAN        CLOUDY    69  41  36 NW10      29.83R
DILLON         CLOUDY    64  42  44 NW3       29.84S
W YELLOWSTONE  MOSUNNY   70  30  23 SW16G26   29.92F
$$

MTZ009-010-012-014-046-048-049-054-040100-
EAST SLOPES AND CENTRAL MONTANA

CITY           SKY/WX    TMP DP  RH WIND       PRES   REMARKS
CUT BANK       CLOUDY    51  45  79 S5        29.95S
GREAT FALLS    RAIN      52  47  83 NW7       29.94R
HELENA         CLOUDY    56  46  69 W7        29.90S
$$

MTZ011-013-016-021-045-047-050-051-040100-
NORTH CENTRAL MONTANA

CITY           SKY/WX    TMP DP  RH WIND       PRES   REMARKS
HAVRE          CLOUDY    67  41  38 N8        29.88S
LEWISTOWN      MOSUNNY   73  38  27 E15       29.87R
N BAR RANCH      N/A     70  39  32 NE9       29.91R
CHINOOK          N/A     64  43  45 NW12      29.86S
FORT BENTON      N/A     63  39  42 NW14      29.89S
$$

MTZ017>020-022>027-061-062-040100-
NORTHEAST MONTANA

CITY           SKY/WX    TMP DP  RH WIND       PRES   REMARKS
GLASGOW        MOSUNNY   77  36  22 NE21      29.79S
JORDAN           N/A     80  42  25 NE13      29.77S
SIDNEY         MOSUNNY   82  50  32 N9          N/A
WOLF POINT     PTSUNNY   81  42  25 N24       29.76S
PLENTYWOOD       N/A     75  43  31 N18       29.78R
POPLAR           N/A     79  43  27 N17G23    29.76R
$$

MTZ028>42-056>058-040100-
SOUTHCENTRAL AND SOUTHEAST MONTANA

CITY           SKY/WX    TMP DP  RH WIND       PRES   REMARKS
BAKER          PTSUNNY   88  46  23 NE7       29.74S
BILLINGS       CLOUDY    76  39  26 NE14      29.78F
LIVINGSTON     MOSUNNY   74  38  27 E21G28    29.79R
MILES CITY     MOSUNNY   85  44  23 NE14      29.71F
FORSYTH          N/A     82  43  24 N7        29.73R
$$

REGIONAL REPORTS...DAKOTAS

CITY           SKY/WX    TMP DP  RH WIND       PRES   REMARKS
WILLISTON      MOSUNNY   82  53  36 N16       29.72S
MINOT          SUNNY     86  69  56 NW14      29.64S HX  90
DICKINSON      MOSUNNY   88  54  31 N6        29.70S
BISMARCK       PTSUNNY   93  56  28 S15       29.66R HX  91
GRAND FORKS    MOSUNNY   89  71  55 SE22G29   29.69S HX  95
FARGO          CLEAR     89  73  59 SE17G26   29.72F HX  97
BUFFALO SD       N/A     85  49  28 N3        29.68F
RAPID CITY     MOSUNNY   87  55  33 NW14      29.73R
$$

REGIONAL REPORTS...WYOMING/IDAHO/WASHINGTON

CITY           SKY/WX    TMP DP  RH WIND       PRES   REMARKS
GILLETTE       PTSUNNY   88  39  17 S12       29.76F
SHERIDAN       PTSUNNY   82  40  22 W10       29.75S
BUFFALO WY     PTSUNNY   87  34  15 VRB6      29.81F
CODY           CLOUDY    72  39  30 N8G21     29.84R
YELLOWSTONE LA   N/A     66  34  30 SW6       30.03S
IDAHO FALLS    MOSUNNY   79  34  19 SW7       29.81F
SALMON         CLOUDY    57  43  58 N14G21    29.87R
BOISE          PTSUNNY   67  39  35 NW15      29.86F
SPOKANE        MOSUNNY   65  27  23 S15G21    29.91F
$$

REGIONAL REPORTS...ALBERTA

CITY           SKY/WX    TMP DP  RH WIND       PRES   REMARKS
$$

REGIONAL REPORTS...SASKATCHEWAN

CITY           SKY/WX    TMP DP  RH WIND       PRES   REMARKS
$$



USA.gov is the U.S. government's official web portal to all federal, state and local government web resources and services.